Amateur Radio Satellites - All Passes

Search period start: 23 May 2013 22:55
Search period end: 24 May 2013 22:55
Location: Dodgeville, 42.9600°N, 90.1300°W

Satellite Date Start Highest point End Downlink Frequencies (MHz)
Time Altitude Azimuth
OPAL 23 May 22:57:16 23:02:17 49° 258° (WSW) 23:07:18 ?
JAS-2 23 May 23:05:12 23:12:07 35° 267° (W) 23:19:09 435.800 - 435.900 CW/SSB, 435.910 FM
KITSAT 1 23 May 23:15:11 23:23:13 77° 118° (ESE) 23:31:19 435.175 FM
HO-68 23 May 23:33:25 23:36:59 14° 272° (W) 23:40:34 435.675 MHz FM
MaSat-1 24 May 00:11:49 00:13:55 12° 100° (E) 00:15:56 437.345 MHz
RS-15 24 May 00:55:30 01:06:37 64° 49° (NE) 01:17:23 29.354 - 29.394 USB, Beacon 29.352 USB
KITSAT 1 24 May 01:12:25 01:19:25 31° 321° (NW) 01:26:29 435.175 FM
ISS 24 May 01:30:57 01:32:15 12° 130° (SE) 01:33:34 145.800 FM
Oscar 16 24 May 01:32:46 01:35:32 14° 89° (E) 01:38:17 437.025 USB, Beacon 2401.1428
AO-27 24 May 01:44:51 01:47:25 14° 89° (E) 01:49:59 436.795 MHz FM
MaSat-1 24 May 01:48:30 01:55:30 69° 114° (ESE) 02:01:13 437.345 MHz
ITAMSAT 1 24 May 01:50:48 01:53:49 15° 90° (E) 01:56:50 435.822 SSB
Uribyol 2 24 May 02:30:10 02:35:01 37° 97° (E) 02:39:51 436.500 FM
Oscar 19 24 May 02:30:45 02:35:41 43° 98° (E) 02:40:33 437.125 CW, 437.150 USB
ISS 24 May 03:05:11 03:08:30 88° 326° (NNW) 03:11:51 145.800 FM
RS-15 24 May 03:08:34 03:18:22 39° 252° (WSW) 03:28:03 29.354 - 29.394 USB, Beacon 29.352 USB
Oscar 16 24 May 03:10:15 03:15:26 71° 286° (WNW) 03:20:33 437.025 USB, Beacon 2401.1428
KITSAT 1 24 May 03:14:00 03:17:59 14° 349° (N) 03:21:58 435.175 FM
AO-27 24 May 03:22:17 03:27:31 76° 286° (WNW) 03:32:44 436.795 MHz FM
ITAMSAT 1 24 May 03:28:37 03:33:50 69° 287° (WNW) 03:39:01 435.822 SSB
MaSat-1 24 May 03:32:39 03:37:55 25° 307° (NW) 03:42:24 437.345 MHz
TMSAT-1 24 May 03:34:03 03:35:54 12° 88° (E) 03:37:45 436.925 FM
Gurwin Techsat 1B 24 May 03:54:32 03:59:06 28° 95° (E) 04:03:38 435.225 FM
Uosat F 24 May 03:57:06 04:01:41 34° 97° (E) 04:06:15 435.120 FM
AO-Echo 24 May 04:02:53 04:07:40 87° 284° (WNW) 04:12:32 ?
Uribyol 2 24 May 04:09:54 04:14:23 29° 294° (WNW) 04:18:51 436.500 FM
Oscar 19 24 May 04:10:38 04:14:48 25° 296° (WNW) 04:18:56 437.125 CW, 437.150 USB
ISS 24 May 04:42:50 04:45:35 23° 345° (NNW) 04:48:20 145.800 FM
Saudisat 1A 24 May 04:47:13 04:50:31 20° 111° (ESE) 04:53:51 436.775 MHz
Oscar 16 24 May 04:53:21 04:53:51 10° 305° (NW) 04:54:20 437.025 USB, Beacon 2401.1428
AO-7 24 May 05:02:56 05:10:03 30° 95° (E) 05:17:06 29.400 - 29.500 MHz
AO-27 24 May 05:04:42 05:06:09 11° 304° (NW) 05:07:37 436.795 MHz FM
TMSAT-1 24 May 05:11:11 05:16:32 87° 285° (WNW) 05:21:51 436.925 FM
KITSAT 1 24 May 05:12:30 05:17:28 17° 21° (NNE) 05:22:26 435.175 FM
Gurwin Techsat 1B 24 May 05:34:15 05:39:09 39° 292° (WNW) 05:44:01 435.225 FM
Uosat F 24 May 05:36:05 05:40:24 30° 294° (WNW) 05:44:43 435.120 FM
AO-Echo 24 May 05:44:34 05:45:45 11° 301° (WNW) 05:46:57 ?
PCSat 24 May 06:04:57 06:07:34 14° 103° (ESE) 06:10:11 145.825 MHz
STRAND 1 24 May 06:12:46 06:17:46 59° 72° (ENE) 06:22:47 ?
ISS 24 May 06:20:39 06:23:07 19° 6° (N) 06:25:36 145.800 FM
Saudisat 1A 24 May 06:25:24 06:29:52 51° 309° (NW) 06:34:23 436.775 MHz
Sapphire 24 May 06:35:57 06:40:17 25° 108° (ESE) 06:44:39 437.095 MHz 1200 baud AX-25 AFSK
Oscar 10/S400 24 May 06:43:22 09:43:23 48° 248° (WSW) 16:52:20 145.825 - 145.975 CW/USB, Beacon 145.810 USB
TMSAT-1 24 May 06:53:19 06:55:41 13° 302° (WNW) 06:58:01 436.925 FM
AO-7 24 May 06:55:05 07:03:19 64° 294° (WNW) 07:11:32 29.400 - 29.500 MHz
KITSAT 1 24 May 07:07:33 07:15:18 45° 47° (NE) 07:23:01 435.175 FM
JAS-1B 24 May 07:32:49 07:36:14 16° 88° (E) 07:39:32 435.800 - 435.900 CW/SSB
PCSat 24 May 07:44:49 07:50:14 84° 300° (WNW) 07:55:42 145.825 MHz
Hamsat 24 May 07:46:56 07:51:09 47° 99° (E) 07:55:23 145.90 MHz
STRAND 1 24 May 07:54:05 07:57:22 17° 269° (W) 08:00:40 ?
ISS 24 May 07:57:15 08:00:28 41° 26° (NNE) 08:03:41 145.800 FM
Saudisat 1A 24 May 08:09:19 08:10:39 11° 330° (NNW) 08:11:59 436.775 MHz
SO-50 24 May 08:12:54 08:17:19 38° 116° (ESE) 08:21:41 436.795 FM
Sapphire 24 May 08:18:11 08:23:24 49° 306° (NW) 08:28:41 437.095 MHz 1200 baud AX-25 AFSK
AO-7 24 May 08:49:56 08:54:31 16° 315° (NW) 08:59:08 29.400 - 29.500 MHz
KITSAT 1 24 May 09:03:05 09:10:47 48° 248° (WSW) 09:18:26 435.175 FM
SO-67 24 May 09:04:36 09:08:08 59° 285° (WNW) 09:11:40 435.3500 MHz FM
HO-68 24 May 09:09:29 09:14:02 18° 90° (E) 09:18:33 435.675 MHz FM
JAS-1B 24 May 09:21:43 09:27:44 67° 288° (WNW) 09:33:19 435.800 - 435.900 CW/SSB
Hamsat 24 May 09:23:59 09:26:53 18° 295° (WNW) 09:29:47 145.90 MHz
PCSat 24 May 09:31:02 09:34:31 17° 321° (NW) 09:38:00 145.825 MHz
ISS 24 May 09:34:08 09:37:06 29° 223° (SW) 09:40:04 145.800 FM
Oscar 11 24 May 09:50:14 09:52:52 16° 91° (E) 09:55:29 145.825 FM, Beacon 2401.500 USB
SO-50 24 May 09:53:45 09:58:00 31° 314° (NW) 10:02:12 436.795 FM
Sapphire 24 May 10:06:30 10:08:13 11° 328° (NNW) 10:09:56 437.095 MHz 1200 baud AX-25 AFSK
JAS-2 24 May 10:14:26 10:20:50 41° 95° (E) 10:26:28 435.800 - 435.900 CW/SSB, 435.910 FM
MaSat-1 24 May 10:33:58 10:36:40 21° 51° (NE) 10:38:58 437.345 MHz
HO-68 24 May 10:55:21 11:02:33 86° 288° (WNW) 11:09:44 435.675 MHz FM
UOSAT-12 24 May 11:04:38 11:08:51 40° 117° (ESE) 11:13:07 437.025 FM, 437.400 FM
OPAL 24 May 11:06:27 11:11:08 39° 100° (E) 11:15:44 ?
JAS-1B 24 May 11:16:34 11:17:02 10° 311° (NW) 11:17:30 435.800 - 435.900 CW/SSB
Oscar 11 24 May 11:25:09 11:29:23 50° 288° (WNW) 11:33:36 145.825 FM, Beacon 2401.500 USB
JAS-2 24 May 11:59:35 12:05:46 36° 297° (WNW) 12:11:18 435.800 - 435.900 CW/SSB, 435.910 FM
MaSat-1 24 May 12:16:32 12:18:25 15° 257° (WSW) 12:20:07 437.345 MHz
HO-68 24 May 12:44:38 12:49:16 19° 307° (NW) 12:53:54 435.675 MHz FM
UOSAT-12 24 May 12:45:16 12:49:09 27° 316° (NW) 12:53:04 437.025 FM, 437.400 FM
OPAL 24 May 12:45:42 12:49:51 27° 297° (WNW) 12:53:57 ?
Oscar 16 24 May 12:50:13 12:54:21 25° 64° (ENE) 12:58:29 437.025 USB, Beacon 2401.1428
AO-27 24 May 13:03:27 13:07:31 24° 64° (ENE) 13:11:37 436.795 MHz FM
ITAMSAT 1 24 May 13:09:26 13:13:40 26° 64° (ENE) 13:17:56 435.822 SSB
Saudisat 1A 24 May 13:12:46 13:16:33 25° 43° (NE) 13:20:16 436.775 MHz
AO-Echo 24 May 13:40:37 13:43:31 16° 62° (ENE) 13:46:24 ?
Oscar 19 24 May 13:48:27 13:53:37 68° 73° (ENE) 13:58:48 437.125 CW, 437.150 USB
Uribyol 2 24 May 13:48:58 13:54:04 61° 72° (ENE) 13:59:12 436.500 FM
AO-7 24 May 14:17:52 14:19:49 11° 39° (NE) 14:21:47 29.400 - 29.500 MHz
Oscar 16 24 May 14:28:28 14:33:26 45° 261° (W) 14:38:26 437.025 USB, Beacon 2401.1428
AO-27 24 May 14:41:49 14:46:46 46° 261° (W) 14:51:46 436.795 MHz FM
ITAMSAT 1 24 May 14:48:06 14:52:58 41° 262° (W) 14:57:53 435.822 SSB
PCSat 24 May 14:49:35 14:53:20 19° 40° (NE) 14:57:04 145.825 MHz
Saudisat 1A 24 May 14:52:06 14:56:29 47° 242° (WSW) 15:00:45 436.775 MHz
TMSAT-1 24 May 14:54:52 14:58:49 22° 63° (ENE) 15:02:47 436.925 FM
Uosat F 24 May 15:11:19 15:16:09 52° 71° (ENE) 15:21:01 435.120 FM
Gurwin Techsat 1B 24 May 15:16:26 15:21:31 48° 70° (ENE) 15:26:36 435.225 FM
AO-Echo 24 May 15:17:05 15:21:52 61° 259° (WSW) 15:26:35 ?
RS-15 24 May 15:20:17 15:30:39 36° 106° (ESE) 15:40:38 29.354 - 29.394 USB, Beacon 29.352 USB
Sapphire 24 May 15:22:11 15:26:51 28° 47° (NE) 15:31:29 437.095 MHz 1200 baud AX-25 AFSK
Oscar 19 24 May 15:30:28 15:33:28 15° 270° (W) 15:36:28 437.125 CW, 437.150 USB
Uribyol 2 24 May 15:30:38 15:33:58 17° 269° (W) 15:37:20 436.500 FM
AO-7 24 May 16:02:46 16:10:28 45° 61° (ENE) 16:18:14 29.400 - 29.500 MHz
PCSat 24 May 16:32:02 16:37:30 88° 241° (WSW) 16:42:56 145.825 MHz
TMSAT-1 24 May 16:33:13 16:38:22 53° 260° (W) 16:43:34 436.925 FM
SO-50 24 May 16:44:04 16:48:27 43° 50° (NE) 16:52:44 436.795 FM
Uosat F 24 May 16:51:47 16:55:16 19° 268° (W) 16:58:47 435.120 FM
Gurwin Techsat 1B 24 May 16:57:38 17:01:44 23° 267° (W) 17:05:52 435.225 FM
Sapphire 24 May 17:05:18 17:10:32 50° 246° (WSW) 17:15:44 437.095 MHz 1200 baud AX-25 AFSK
RS-15 24 May 17:30:16 17:42:16 72° 308° (NW) 17:53:48 29.354 - 29.394 USB, Beacon 29.352 USB
AO-7 24 May 17:55:27 18:03:14 44° 260° (W) 18:11:08 29.400 - 29.500 MHz
UOSAT-12 24 May 17:55:43 17:56:25 10° 29° (NNE) 17:57:07 437.025 FM, 437.400 FM
JAS-1B 24 May 18:16:59 18:23:39 26° 60° (ENE) 18:29:34 435.800 - 435.900 CW/SSB
PCSat 24 May 18:18:07 18:20:05 12° 258° (WSW) 18:22:02 145.825 MHz
STRAND 1 24 May 18:23:34 18:27:09 19° 92° (E) 18:30:42 ?
SO-50 24 May 18:25:16 18:28:48 23° 248° (WSW) 18:32:17 436.795 FM
Hamsat 24 May 18:42:04 18:45:57 37° 71° (ENE) 18:49:53 145.90 MHz
UOSAT-12 24 May 19:33:17 19:37:44 47° 50° (NE) 19:42:10 437.025 FM, 437.400 FM
HO-68 24 May 19:40:32 19:44:48 17° 52° (NE) 19:49:03 435.675 MHz FM
SO-67 24 May 19:41:05 19:44:34 54° 75° (ENE) 19:48:05 435.3500 MHz FM
RS-15 24 May 19:47:12 19:57:07 30° 336° (NNW) 20:06:41 29.354 - 29.394 USB, Beacon 29.352 USB
STRAND 1 24 May 20:01:40 20:06:41 55° 289° (WNW) 20:11:42 ?
JAS-1B 24 May 20:04:28 20:13:39 79° 256° (WSW) 20:21:25 435.800 - 435.900 CW/SSB
Hamsat 24 May 20:19:08 20:22:10 19° 268° (W) 20:25:15 145.90 MHz
JAS-2 24 May 20:26:32 20:32:41 26° 59° (ENE) 20:38:48 435.800 - 435.900 CW/SSB, 435.910 FM
Oscar 11 24 May 20:47:11 20:49:38 15° 63° (ENE) 20:52:05 145.825 FM, Beacon 2401.500 USB
OPAL 24 May 20:47:18 20:49:10 12° 55° (NE) 20:51:02 ?
UOSAT-12 24 May 21:14:06 21:17:37 22° 248° (WSW) 21:21:08 437.025 FM, 437.400 FM
HO-68 24 May 21:24:16 21:31:24 79° 71° (ENE) 21:38:33 435.675 MHz FM
KITSAT 1 24 May 21:38:44 21:44:47 24° 104° (ESE) 21:50:51 435.175 FM
JAS-1B 24 May 21:59:49 22:04:56 16° 271° (W) 22:09:41 435.800 - 435.900 CW/SSB
RS-15 24 May 22:05:31 22:14:29 25° 12° (NNE) 22:23:09 29.354 - 29.394 USB, Beacon 29.352 USB
JAS-2 24 May 22:09:10 22:16:57 77° 257° (WSW) 22:24:48 435.800 - 435.900 CW/SSB, 435.910 FM
Oscar 11 24 May 22:21:10 22:25:24 56° 260° (W) 22:29:41 145.825 FM, Beacon 2401.500 USB
OPAL 24 May 22:22:04 22:27:15 80° 72° (ENE) 22:32:25 ?

Developed and maintained by Chris Peat, Heavens-Above GmbH. Please read the updated FAQ before sending e-mail. Imprint. DLR
